STARLINK-32710 (62604 NORAD) Tracking and Keplerian Element Data

This shows tracking and keplerian element data for the satellite.

Feedback or suggestion? Click here.




ElementValue
Catalog62604
NameSTARLINK-32710
Epoch Orbit5339
Epoch Day354.08418942
Epoch Year2025
RAAN7.1425
Inclination42.9931
Eccentricity0.000508
Argument of Perigee142.3524
Mean Anonmoly217.7684
Mean Motion15.27614966
Decay Rate0.00026073
L11 62604U 25008T 25354.08418942 .00026073 00000+0 95236-3 0 9993
L22 62604 42.9931 7.1425 0005080 142.3524 217.7684 15.27614966 53393



Live tracking and technical data element details for STARLINK-32710 (NORAD 62604). STARLINK-32710 can be tracked NOW for your location showing map with azimuth and elevation plus other details from your city location.







IsCatalogInMostPopularTable: catalog: 62604, numindb: 248
Update: records affected: 1



GetName: 62604 STARLINK-32710

Hit Count: updated at: Sat, 14 Mar 2026 02:00:19 GMT